Weather in Forster

Australia     32°11′36″S   152°30′54″E
temp.,
°C
wind,
m/s
gust,
m/s
humid.,
%
clouds,
%
prec.,
mm/h
press.,
hPa
HPBL,
m
9 may, sun
sun901:00+17wnw2288100 0.1 101779
04:00+17wsw2286100 0.3 101793
07:00+16wsw3390100 1.8 1018115
10:00+18wsw2385100 2.5 1019222
13:00+21ssw2366100 0.1 1017510
16:00+20sse1170100 0.1 1016205
19:00+19wsw1179100 0.2 1018202
22:00+18wnw228789 1.8 1017114
10 may, mon
mon1001:00+17wsw229086 0.9 1016117
04:00+16w229012 0.9 1015124
07:00+15wnw22907 0.0 1016114
10:00+19nw23710 0.0 1016315
13:00+23nne235331 0.0 10131076
16:00+20ese126594 0.0 101396
19:00+19n23750 0.0 1015216
22:00+17nnw35855 0.1 1016127
11 may, tue
tue1101:00+16nw348136 0.0 1014103
04:00+15nw337775 0.0 1014110
07:00+16nnw347282 0.0 1015120
10:00+21nnw235320 0.0 1016300
13:00+22ese435666 0.0 1015630
16:00+19ese4575100 0.8 1015337
19:00+18ese238299 0.8 1018234
22:00+18n238678 1.4 1018205
12 may, wed
wed1201:00+16nnw2390100 0.0 1018140
04:00+16nnw1188100 0.1 1018126
07:00+16nnw1291100 2.6 1019117
10:00+18nne51188100 4.1 1020518
13:00+20nne6975100 0.0 1018876
16:00+19ne7107857 0.0 1017627
19:00+19ne688064 0.0 1018677
22:00+18nne478257 0.0 1018568
13 may, thu
thu1301:00+16nnw349112 0.0 1016165
04:00+15nw339085 0.0 1014113
07:00+15w22887 0.0 1014110
10:00+19ssw33721 0.0 1014511
13:00+22sw45600 0.0 1011999
16:00+20sw467534 0.8 1010365
19:00+16wsw37840 0.8 1011212
22:00+15wnw49831 0.8 1012264